This is the latest recevied weather packets stored in our database for station/object KK4EQF. If no packets are shown the sender has not sent any weather packets the latest 1 day(s).
| Time | Temp. | Humidity | Pressure | Rain* | Wind** | Luminosity | Snow |
|---|---|---|---|---|---|---|---|
| 1777998720 | 27.78° C | 37% | 1016.3 hPa | 0 mm | 0.89 m/s, 163° | - | - |
| 1777998661 | 27.78° C | 37% | 1016.3 hPa | 0 mm | 0.89 m/s, 163° | - | - |
| 1777998604 | 27.78° C | 38% | 1016.3 hPa | 0 mm | 0.89 m/s, 109° | - | - |
| 1777998538 | 27.78° C | 38% | 1016.3 hPa | 0 mm | 0.89 m/s, 147° | - | - |
| 1777998478 | 27.78° C | 37% | 1016.3 hPa | 0 mm | 0.89 m/s, 165° | - | - |
| 1777998421 | 27.78° C | 38% | 1016.3 hPa | 0 mm | 0.89 m/s, 103° | - | - |
| 1777998358 | 27.78° C | 34% | 1016.3 hPa | 0 mm | 0.89 m/s, 92° | - | - |
| 1777998301 | 27.78° C | 35% | 1016.4 hPa | 0 mm | 0.89 m/s, 105° | - | - |
| 1777998235 | 27.78° C | 32% | 1016.4 hPa | 0 mm | 0.89 m/s, 80° | - | - |
| 1777998172 | 27.78° C | 34% | 1016.4 hPa | 0 mm | 1.34 m/s, 97° | - | - |
| 1777998115 | 27.78° C | 36% | 1016.4 hPa | 0 mm | 1.34 m/s, 97° | - | - |
| 1777998050 | 27.78° C | 36% | 1016.4 hPa | 0 mm | 1.34 m/s, 97° | - | - |
| 1777997995 | 27.78° C | 36% | 1016.4 hPa | 0 mm | 1.34 m/s, 71° | - | - |
| 1777997926 | 27.78° C | 35% | 1016.3 hPa | 0 mm | 0.89 m/s, 74° | - | - |
| 1777997867 | 27.78° C | 35% | 1016.4 hPa | 0 mm | 0.89 m/s, 64° | - | - |
| 1777997808 | 27.78° C | 37% | 1016.3 hPa | 0 mm | 0.89 m/s, 92° | - | - |
| 1777997745 | 27.78° C | 37% | 1016.4 hPa | 0 mm | 0.89 m/s, 107° | - | - |
| 1777997689 | 27.78° C | 38% | 1016.4 hPa | 0 mm | 0.89 m/s, 105° | - | - |
| 1777997617 | 28.33° C | 36% | 1016.4 hPa | 0 mm | 0.45 m/s, 119° | - | - |
| 1777997556 | 28.33° C | 33% | 1016.4 hPa | 0 mm | 0.45 m/s, 99° | - | - |
| 1777997496 | 28.33° C | 34% | 1016.4 hPa | 0 mm | 0.45 m/s, 52° | - | - |
| 1777997437 | 28.33° C | 33% | 1016.4 hPa | 0 mm | 0.45 m/s, 52° | - | - |
| 1777997381 | 27.78° C | 34% | 1016.4 hPa | 0 mm | 0.89 m/s, 52° | - | - |
| 1777997313 | 27.78° C | 33% | 1016.4 hPa | 0 mm | 0.89 m/s, 52° | - | - |
| 1777997252 | 27.78° C | 34% | 1016.3 hPa | 0 mm | 0.89 m/s, 34° | - | - |
* Rain latest hour (hover to see other rain measurements)
** Current wind speed in m/s (hover to see current wind gust speed)